Location: Temagami
(47.0645°N, 79.7909°W)
Time: 23:40:27
(UTC-04:00)

ISS - Visible Passes

Search period start: 25 September 2017 00:00
Search period end: 05 October 2017 00:00
Orbit: 401 x 407 km, 51.6° (Epoch: 26 September)

Date Brightness Start Highest point End Pass type
(mag) Time Alt. Az. Time Alt. Az. Time Alt. Az.
25 Sep -1.7 19:55:36 10° SSE 19:56:50 12° SE 19:57:35 11° ESE visible
25 Sep -1.3 21:29:31 10° SW 21:30:17 16° SW 21:30:17 16° SW visible
26 Sep -3.3 20:37:25 10° SW 20:40:29 40° SE 20:40:35 40° SE visible
27 Sep -2.5 19:45:35 10° SSW 19:48:16 24° SE 19:50:42 12° E visible
27 Sep -2.4 21:21:15 10° WSW 21:23:22 36° W 21:23:22 36° W visible
28 Sep -3.9 20:28:51 10° WSW 20:32:07 79° SSE 20:33:20 36° ENE visible
28 Sep -0.4 22:05:42 10° WNW 22:05:59 12° WNW 22:05:59 12° WNW visible
29 Sep -3.4 19:36:37 10° SW 19:39:47 47° SSE 19:42:58 10° ENE visible
29 Sep -2.6 21:13:07 10° W 21:15:48 41° NW 21:15:48 41° NW visible
30 Sep -3.4 20:20:34 10° WSW 20:23:49 61° NNW 20:25:32 25° NE visible
30 Sep -0.5 21:57:36 10° WNW 21:58:11 14° WNW 21:58:11 14° WNW visible
01 Oct -3.8 19:28:06 10° WSW 19:31:22 89° NNW 19:34:40 10° ENE visible
01 Oct -2.5 21:05:01 10° WNW 21:07:50 36° NNW 21:07:50 36° NNW visible
02 Oct -2.9 20:12:25 10° W 20:15:33 42° NNW 20:17:26 20° NE visible
02 Oct -0.6 21:49:21 10° WNW 21:50:04 15° WNW 21:50:04 15° WNW visible
03 Oct -3.3 19:19:48 10° W 19:23:01 54° NNW 19:26:15 10° ENE visible
03 Oct -2.5 20:56:49 10° WNW 20:59:37 34° N 20:59:37 34° N visible
04 Oct -2.7 20:04:13 10° WNW 20:07:16 35° N 20:09:09 19° NE visible
04 Oct -0.8 21:40:57 10° WNW 21:41:47 16° WNW 21:41:47 16° WNW visible
